Satellite-Ground Cal/Val Site Overpasses Predictions

Prediction of Satellite NPP Overpassing Cal/Val Site: Antarctic Dome C

Ground Cal/Val Site Location: Latitude: -75.10, Longitude: 123.35; Satellite-Ground Site NADIR distance within 100 km.

Table of predicted overpasses for the next 14.0 days since TLE Epoch: 12/26/2020
Interval Starting Time Ending Time Minimum Distance Time Minimum Distance (km)
1 12/26/2020 07:18:32 12/26/2020 07:18:51 12/26/2020 07:18:42 74.41
2 12/28/2020 15:00:47 12/28/2020 15:01:11 12/28/2020 15:00:59 56.62
3 12/29/2020 14:41:57 12/29/2020 14:42:22 12/29/2020 14:42:09 52.45
4 12/30/2020 07:43:38 12/30/2020 07:43:59 12/30/2020 07:43:49 71.14
5 12/31/2020 07:24:45 12/31/2020 07:25:13 12/31/2020 07:24:59 36.80
6 01/02/2021 15:07:12 01/02/2021 15:07:21 01/02/2021 15:07:16 94.58
7 01/03/2021 14:48:13 01/03/2021 14:48:41 01/03/2021 14:48:27 16.57
8 01/05/2021 07:31:02 01/05/2021 07:31:31 01/05/2021 07:31:17 1.61
